FW5354 Weather Reports


Display with metric or nautical units.
time (UTC)temp
F
wind
direction
speed
MPH
gust
MPH
rain 1hr
in
rain 24hr
in
rain mn
in
humidity
%
barometer
mb
20260906014542 82 155 0.0 0.0 0.00 0.00 0.00 69 1008.9
20260906013040 82 162 0.0 0.0 0.00 0.00 0.00 70 1008.8
20260906011540 82 116 0.0 0.0 0.00 0.00 0.00 71 1008.8
20260906010041 82 151 0.0 0.0 0.00 0.00 0.00 72 1008.8
20260906004539 83 126 0.0 0.0 0.00 0.00 0.00 73 1009.0
20260906003034 84 148 0.0 0.0 0.00 0.00 0.00 72 1009.1
20260906001532 84 159 0.0 0.0 0.00 0.00 0.00 71 1009.2
20260906000032 85 167 0.0 0.0 0.00 0.00 0.00 71 1009.2
20260905234527 86 154 0.0 0.0 0.00 0.00 0.00 67 1009.2
20260905233028 87 171 0.0 0.0 0.00 0.00 0.00 67 1009.4
20260905231526 87 143 0.0 0.0 0.00 0.00 0.00 68 1009.6
20260905230023 88 175 0.0 0.0 0.00 0.00 0.00 67 1009.2
20260905224525 88 129 0.0 0.0 0.00 0.00 0.00 64 1009.1
20260905223022 88 143 0.0 0.0 0.00 0.00 0.00 65 1008.8
20260905221521 88 129 0.0 0.0 0.00 0.00 0.00 64 1008.8
20260905220022 89 118 0.0 0.0 0.00 0.00 0.00 65 1008.9
20260905214516 90 117 0.0 0.0 0.00 0.00 0.00 64 1008.8
20260905213015 90 121 0.0 0.0 0.00 0.00 0.00 66 1008.8
20260905211520 93 110 0.0 0.0 0.00 0.00 0.00 61 1009.0
20260905210016 95 129 0.0 0.0 0.00 0.00 0.00 58 1009.1
20260905204515 98 151 0.0 0.0 0.00 0.00 0.00 52 1008.8
20260905203014 99 154 0.0 0.0 0.00 0.00 0.00 48 1008.8
20260905201606 99 146 0.0 0.0 0.00 0.00 0.00 47 1009.0
20260905200100 98 174 0.0 0.0 0.00 0.00 0.00 47 1009.3
20260905194558 98 137 0.0 0.0 0.00 0.00 0.00 48 1009.4
20260905193053 97 193 0.0 0.0 0.00 0.00 0.00 50 1009.6
20260905191554 97 160 0.0 0.0 0.00 0.00 0.00 51 1009.9
20260905190048 96 153 0.0 0.0 0.00 0.00 0.00 51 1010.0
20260905184601 96 131 0.0 0.0 0.00 0.00 0.00 52 1010.0
20260905183042 95 160 0.0 0.0 0.00 0.08 0.00 53 1010.3
20260905181541 97 122 0.0 0.0 0.00 0.08 0.00 52 1010.7
20260905180044 97 122 0.0 0.0 0.00 0.08 0.00 52 1011.0
20260905174545 97 164 0.0 0.0 0.00 0.08 0.00 52 1011.3
20260905173036 97 128 0.0 0.0 0.00 0.77 0.00 51 1011.6
20260905171536 94 124 0.0 0.0 0.00 0.77 0.00 56 1011.7
20260905170034 93 155 0.0 0.0 0.00 0.77 0.00 58 1011.9
20260905164533 93 162 0.0 0.0 0.00 0.77 0.00 58 1011.9
20260905163029 0 0.0 0.0 0.00 0.77 0.00 1012.0
20260905161528 0 0.0 0.0 0.00 0.77 0.00 1012.1
20260905160040 0 0.0 0.0 0.00 0.77 0.00 1012.0
20260905154521 0 0.0 0.0 0.00 0.77 0.00 1012.0
20260905153021 0 0.0 0.0 0.00 0.77 0.00 1012.0
20260905151523 0 0.0 0.0 0.00 0.77 0.00 1012.1
20260905150027 0 0.0 0.0 0.00 0.77 0.00 1012.0
20260905144539 0 0.0 0.0 0.00 0.77 0.00 1012.0
20260905143025 0 0.0 0.0 0.00 0.77 0.00 1012.0
20260905141533 0 0.0 0.0 0.00 0.77 0.00 1012.0
20260905140019 83 139 0.0 0.0 0.00 0.77 0.00 59 1011.9
20260905134519 82 136 0.0 0.0 0.00 0.77 0.00 45 1011.8
20260905133023 80 136 0.0 0.0 0.00 0.77 0.00 29 1011.7
20260905131530 79 136 0.0 0.0 0.00 0.77 0.00 30 1011.8
20260905130017 78 136 0.0 0.0 0.00 0.77 0.00 31 1011.7
20260905124517 78 136 0.0 0.0 0.00 0.77 0.00 32 1011.4
20260905123016 0 0.0 0.0 0.00 0.77 0.00 1011.2
20260905121516 0 0.0 0.0 0.00 0.77 0.00 1011.1
20260905120016 0 0.0 0.0 0.00 0.77 0.00 1011.0
20260905114516 0 0.0 0.0 0.00 0.77 0.00 1010.9
20260905113017 0 0.0 0.0 0.00 0.77 0.00 1010.7
20260905111516 0 0.0 0.0 0.00 0.77 0.00 1010.5
20260905110016 0 0.0 0.0 0.00 0.77 0.00 1010.4
20260905104515 0 0.0 0.0 0.00 0.77 0.00 1010.3
20260905103028 0 0.0 0.0 0.00 0.77 0.00 1010.3
20260905101516 0 0.0 0.0 0.00 0.77 0.00 1010.3
20260905100014 0 0.0 0.0 0.00 0.77 0.00 1010.3
20260905094514 0 0.0 0.0 0.00 0.77 0.00 1010.2
20260905093013 0 0.0 0.0 0.00 0.77 0.00 1010.3
20260905091514 0 0.0 0.0 0.00 0.77 0.00 1010.3
20260905090013 0 0.0 0.0 0.00 0.77 0.00 1010.2
20260905084517 0 0.0 0.0 0.00 0.77 0.00 1010.2
20260905083013 0 0.0 0.0 0.00 0.77 0.00 1010.1
20260905081513 0 0.0 0.0 0.00 0.77 0.00 1010.3
20260905080017 0 0.0 0.0 0.00 0.77 0.00 1010.3
20260905074516 0 0.0 0.0 0.00 0.77 0.00 1010.3
20260905073008 0 0.0 0.0 0.00 0.77 0.00 1010.4
20260905071509 0 0.0 0.0 0.00 0.77 0.00 1010.6
20260905070002 0 0.0 0.0 0.00 0.77 0.00 1010.6
20260905064611 0 0.0 0.0 0.00 0.77 0.00 1010.7
20260905063059 0 0.0 0.0 0.00 0.77 0.00 1010.8
20260905061613 0 0.0 0.0 0.00 0.77 0.00 1011.0
20260905060052 80 136 0.0 0.0 0.00 0.77 0.00 58 1011.0
20260905054555 80 136 0.0 0.0 0.00 0.77 0.00 59 1010.9
20260905053050 80 136 0.0 0.0 0.00 0.77 0.00 62 1011.0
20260905051605 81 136 0.0 0.0 0.00 0.77 0.00 63 1011.0
20260905050058 81 136 0.0 0.0 0.00 0.77 0.00 65 1010.8
20260905044555 81 136 0.0 0.0 0.00 0.77 0.00 67 1010.8
20260905043045 81 136 0.0 0.0 0.00 0.77 0.00 68 1010.9
20260905041548 81 136 0.0 0.0 0.00 0.77 0.00 70 1011.1
20260905040052 81 136 0.0 0.0 0.00 0.77 0.00 71 1011.0
20260905034559 81 136 0.0 0.0 0.00 0.77 0.00 72 1011.2
20260905033100 81 136 0.0 0.0 0.00 0.77 0.00 73 1011.3
20260905031541 81 136 0.0 0.0 0.00 0.77 0.00 73 1011.2
20260905030041 81 136 0.0 0.0 0.00 0.77 0.00 73 1011.2
20260905024540 80 136 0.0 0.0 0.00 0.77 0.00 73 1011.0
20260905023116 81 136 0.0 0.0 0.00 0.77 0.00 73 1010.9
20260905021538 81 136 0.0 0.0 0.00 0.77 0.00 73 1010.7
20260905020037 80 136 0.0 0.0 0.00 0.77 0.00 73 1010.4